Orbital Elements at Epoch 2459000.5 (2020-May-31.0) TDB
Reference: JPL 16 (heliocentric ecliptic J2000)
Element | Value | Uncertainty (1-sigma) | Units |
e | .1683036104421002 | 8.4122e-08 | |
a | 2.762605170403688 | 2.4409e-08 | au |
q | 2.297648745998734 | 2.4058e-07 | au |
i | 6.916758602548233 | 4.9514e-06 | deg |
node | 270.9029750344561 | 7.6939e-05 | deg |
peri | 336.9636118375499 | 8.1302e-05 | deg |
M | 330.6492105040373 | 2.7338e-05 | deg |
tp | 2459137.239486357510 (2020-Oct-14.73948636) | 0.00012749 | TDB |
period | 1677.168346543968 4.59 | 2.2228e-05 6.086e-08 | d yr |
n | .2146475043735643 | 2.8448e-09 | deg/d |
Q | 3.227561594808642 | 2.8517e-08 | au |
|
| | Orbit Determination Parameters
Additional Information
|